Theta_e
314 311 310 309 309 310 310 309 307 308 307 308 307 308 308 308 310 308 307 307 308 309 309 310 310 310 312 312 312 313 312 312 312 312 314 314 312 312 311 310 310 310
309 308 307 307 307 307 307 306 306 306 306 306 307 306 307 307 306 305 305 305 305 305 306 307 307 308 308 308 308 309 310 310 309 310 309 307 307 308 309 309 310 310
305 305 305 304 305 305 305 305 304 304 304 304 304 305 306 304 304 303 303 303 303 304 304 305 304 305 307 308 309 308 308 308 308 309 308 307 307 307 309 309 308 308
304 304 304 303 304 303 303 303 302 302 302 303 302 303 303 303 302 302 302 300 301 301 302 303 302 304 304 305 306 305 306 306 307 307 307 307 306 306 306 307 306 306
302 303 303 303 303 302 302 302 302 302 301 301 302 302 302 302 301 300 299 298 298 298 299 300 301 302 302 301 301 300 301 302 303 303 301 301 303 303 304 305 304 304
301 302 301 302 301 301 302 301 300 300 300 299 299 299 299 298 297 296 296 295 296 297 297 297 298 299 299 298 299 298 298 300 301 300 301 300 300 300 303 303 302 302
299 299 300 300 300 300 299 299 299 298 297 296 295 296 295 295 294 295 295 295 294 294 294 295 295 296 296 295 295 295 296 295 295 295 296 298 299 300 301 301 301 301
298 298 299 298 298 297 296 296 295 295 293 293 293 293 294 294 294 293 293 293 293 293 293 292 293 294 293 294 294 293 293 296 296 294 296 297 298 297 297 299 299 300
296 295 295 294 294 294 293 293 292 292 292 293 294 293 292 293 292 292 292 292 292 291 292 292 292 292 291 292 291 291 292 292 293 292 293 293 293 294 294 294 296 297
294 293 292 292 292 292 291 290 291 292 292 292 291 291 292 291 291 291 290 290 290 290 290 290 290 290 290 290 292 290 290 292 291 291 292 292 293 293 293 292 293 294
291 291 291 290 291 290 290 290 290 290 290 290 290 290 289 289 289 289 289 290 292 290 290 289 290 290 291 290 290 289 290 291 291 291 291 292 292 292 291 292 292 292
290 289 289 289 290 290 289 289 289 289 287 287 288 289 288 288 288 288 288 289 288 289 289 289 289 288 289 289 289 289 290 290 291 290 290 291 291 291 291 291 291 292
289 289 289 289 289 289 289 289 288 287 287 288 287 288 287 287 287 287 288 288 288 288 288 289 289 289 289 289 289 288 288 288 289 289 289 290 290 290 290 290 291 291
290 289 289 289 289 288 287 287 287 286 286 286 286 286 286 286 287 287 286 286 287 287 288 288 287 287 287 287 287 287 288 287 287 288 288 288 288 289 289 289 290 290
289 288 288 288 287 286 286 286 286 284 285 284 284 285 287 285 285 286 286 286 286 287 287 288 289 290 289 289 289 288 287 287 287 287 287 287 287 287 288 288 289 290
288 287 287 286 285 285 285 284 284 284 284 283 284 284 284 285 284 285 285 286 287 287 287 288 289 290 289 291 292 290 288 287 287 286 286 286 286 287 287 287 288 289
286 286 285 286 285 284 283 284 284 284 284 284 284 284 285 285 285 285 285 285 285 285 285 287 288 289 290 292 293 293 290 286 285 285 285 285 285 286 286 286 287 287
285 285 285 285 284 284 283 283 283 283 284 284 284 284 285 284 284 284 284 284 285 283 283 285 285 288 291 291 292 292 291 288 286 285 285 285 285 285 285 286 286 286
284 284 284 284 283 283 283 283 283 283 283 283 283 283 283 283 283 283 283 283 283 282 282 283 283 287 290 291 291 291 291 289 286 285 284 284 284 285 285 285 285 286
284 283 283 282 282 282 283 283 283 283 282 282 282 282 282 282 281 281 282 282 282 282 282 282 283 286 289 290 290 290 291 290 286 285 284 284 284 284 285 285 285 285
283 282 282 281 282 281 281 281 281 280 280 281 282 281 281 281 281 280 281 281 281 281 281 282 284 287 289 289 290 290 290 290 285 284 284 284 284 284 284 284 284 285
281 280 280 280 280 280 280 280 279 279 279 280 280 280 280 280 280 279 280 280 280 280 281 281 282 286 288 288 289 290 290 286 283 283 283 283 283 283 284 284 284 284
280 279 279 279 278 278 277 277 277 278 278 279 278 279 278 279 278 278 279 280 280 280 279 280 280 283 287 288 288 289 288 284 283 283 282 282 283 283 283 283 284 284
279 278 277 277 276 276 276 276 276 276 277 278 277 277 277 278 278 279 278 278 279 279 279 279 280 282 286 287 288 288 287 283 282 282 282 282 282 282 283 283 283 284
278 277 276 275 275 275 275 275 274 275 276 276 275 274 276 277 279 278 277 277 276 278 280 280 280 281 285 286 287 288 286 283 282 281 281 281 281 281 282 282 283 283
276 276 275 275 274 274 274 274 275 275 273 273 273 274 274 275 275 276 276 277 277 278 279 279 279 280 282 286 286 286 286 284 282 280 280 280 280 281 281 282 283 283
Wind_Speed
2 3 3 3 2 1 0 1 3 4 3 4 4 4 5 3 4 4 3 3 1 1 2 1 1 3 3 2 2 2 2 3 4 3 4 6 5 5 6 5 5 6
3 4 4 3 3 4 5 4 4 4 4 4 5 4 5 5 4 4 4 4 4 4 3 1 2 2 1 3 3 3 3 2 3 2 4 3 3 3 4 5 6 6
4 4 4 3 4 5 4 4 4 4 4 3 3 4 4 4 4 4 4 3 3 3 3 4 4 2 1 0 1 2 3 3 4 4 4 6 7 6 6 5 5 5
5 5 4 4 5 4 4 5 4 3 4 5 4 3 3 3 3 4 4 4 3 3 3 4 4 4 4 3 3 2 2 3 3 3 4 4 4 4 5 4 5 5
5 5 4 5 4 4 4 5 5 5 4 4 5 5 5 5 4 4 4 4 4 4 4 4 4 4 4 4 3 3 3 3 3 4 4 4 4 4 4 4 5 6
5 5 5 5 4 5 6 5 4 5 5 5 4 4 4 4 4 4 4 4 4 4 4 4 4 3 4 4 4 3 3 4 4 4 4 5 5 4 4 4 5 6
6 5 6 5 6 6 6 5 6 5 4 3 3 4 4 4 4 4 4 4 4 4 4 3 4 4 4 4 4 4 4 4 4 4 5 6 6 7 5 5 6 7
5 5 5 6 7 6 6 5 4 4 3 4 4 4 4 4 4 4 4 4 4 3 3 4 4 4 4 4 4 5 4 3 4 4 4 5 5 6 5 5 5 7
6 6 6 6 7 6 6 5 4 4 3 5 5 5 4 4 3 3 3 3 3 3 3 3 3 3 3 3 4 4 5 5 4 4 4 5 5 6 6 5 6 7
7 6 7 6 7 5 6 5 4 5 5 7 5 5 5 4 3 3 3 4 4 4 4 3 3 3 3 3 4 4 4 5 5 5 5 5 6 7 6 5 6 7
6 5 6 6 6 5 6 6 6 6 6 6 5 5 4 3 3 3 3 4 5 4 4 4 4 4 4 4 4 4 4 5 5 5 5 6 6 7 7 7 7 8
6 5 5 5 5 6 7 7 7 6 5 4 3 3 3 3 3 4 4 4 4 4 4 4 4 4 4 4 4 4 4 4 5 5 6 6 6 7 7 7 8 9
6 5 5 5 6 6 6 6 5 4 4 3 3 2 2 3 4 4 4 4 4 4 4 4 4 4 4 4 4 4 4 5 6 6 6 6 6 7 7 7 8 8
6 5 5 6 5 5 5 5 4 4 4 4 3 4 4 4 4 4 4 4 4 4 4 4 4 4 4 4 4 4 5 5 5 7 8 7 8 8 8 8 9 9
5 5 5 5 5 4 4 4 4 4 3 3 3 4 4 4 4 4 4 5 4 4 5 5 5 5 4 5 6 7 5 6 6 7 8 9 9 9 9 9 9 9
6 5 5 4 4 4 4 4 4 4 4 4 4 4 4 4 4 4 4 5 6 6 5 5 6 4 7 12 10 7 7 6 6 7 7 8 9 11 11 9 9 9
5 4 4 5 4 4 4 4 4 3 4 4 4 4 5 4 4 5 5 5 5 5 5 6 5 5 11 11 12 13 8 6 6 7 6 7 8 9 11 12 10 9
4 4 5 5 5 4 3 3 3 4 5 5 4 5 5 4 5 4 4 4 4 4 4 5 5 8 12 12 13 13 12 8 7 7 8 7 8 9 10 11 12 12
5 5 5 4 4 4 3 4 4 5 6 5 5 4 4 4 4 4 4 4 3 4 4 5 5 9 12 13 13 14 14 12 7 7 8 9 9 10 11 11 11 12
6 5 4 4 3 3 4 4 5 5 4 4 4 4 4 4 4 4 4 4 4 4 4 5 6 8 12 13 14 15 15 13 7 8 8 9 10 11 11 11 12 12
6 5 4 3 3 4 4 4 4 4 4 4 4 4 4 4 4 4 4 4 4 4 4 5 6 10 12 14 14 15 17 13 7 7 8 9 10 10 11 11 12 12
6 4 3 3 3 3 4 4 4 3 3 3 3 3 3 4 4 3 4 4 4 4 5 6 6 10 13 13 14 14 16 9 6 7 9 10 11 10 10 10 10 11
4 3 2 2 2 2 3 3 3 3 3 2 3 3 4 4 4 3 4 5 5 5 5 7 6 8 12 14 14 15 11 8 8 8 8 10 12 12 11 10 10 10
3 1 0 1 1 1 2 2 2 2 1 2 3 4 4 4 4 4 4 4 5 5 5 6 8 7 9 13 15 16 12 8 8 9 11 11 12 12 11 11 11 17
3 1 0 0 1 1 1 2 3 2 2 3 3 3 4 4 4 5 4 4 4 5 7 6 7 8 8 10 15 16 13 8 9 9 11 12 12 14 13 12 12 11
2 1 1 0 1 1 2 2 2 2 3 3 4 3 3 4 3 4 5 5 4 5 7 5 7 8 7 11 14 17 18 12 8 9 11 13 13 13 14 14 13 13
Wind_Direction
142 139 140 140 152 164 109 65 45 62 56 56 46 31 50 45 52 55 49 55 38 243 177 175 310 322 325 331 335 351 341 333 326 297 253 242 236 235 244 248 246 246
129 105 97 93 91 71 65 67 56 59 47 45 44 34 31 38 19 31 23 14 14 6 352 294 231 223 315 330 349 2 345 332 308 331 336 317 289 272 264 260 256 260
96 92 88 90 85 82 78 66 65 53 63 59 50 42 41 42 25 13 17 31 20 359 341 346 358 341 291 243 28 4 340 327 323 319 314 303 301 298 287 285 284 269
94 103 102 86 85 87 72 74 57 54 52 49 49 44 45 39 37 13 12 22 29 7 3 15 8 1 2 1 10 335 299 291 280 284 276 274 265 261 269 269 270 273
109 96 91 90 89 91 85 79 64 60 59 51 40 33 42 36 28 20 13 5 22 14 18 12 7 358 355 348 355 341 323 315 307 306 296 287 284 280 279 276 273 275
81 86 85 87 84 85 81 77 71 61 52 47 33 37 37 38 32 23 15 21 12 21 11 8 1 347 359 358 357 344 335 334 318 346 335 319 312 314 314 315 305 292
84 84 88 86 79 77 79 75 66 61 56 41 46 57 49 39 26 20 14 18 18 11 12 3 13 356 354 358 354 339 332 333 334 344 331 316 318 309 309 302 296 289
91 88 87 84 81 76 78 76 76 69 58 48 66 47 52 39 31 15 13 16 21 7 8 8 9 9 356 6 353 343 329 331 329 320 304 295 297 290 292 287 283 280
86 82 80 79 80 75 75 71 73 71 58 65 49 36 28 49 25 20 8 13 12 0 6 359 355 352 345 346 326 320 311 309 303 302 288 285 286 279 280 281 280 275
75 76 81 84 83 80 78 67 62 55 45 48 37 37 35 6 31 20 15 10 12 2 356 351 343 330 319 304 285 284 287 285 287 283 276 273 273 277 279 278 270 276
75 74 83 83 86 79 70 60 49 45 42 45 37 32 10 26 2 10 23 15 9 357 351 351 336 329 324 314 304 288 277 279 282 277 273 272 269 270 272 271 271 265
72 70 71 76 76 70 67 63 56 49 45 33 54 31 13 14 29 4 23 5 359 349 348 335 331 327 320 307 303 305 303 296 293 292 288 285 284 278 276 271 268 269
74 68 64 63 61 64 65 65 64 58 54 41 26 67 51 29 15 25 354 11 337 346 335 325 324 327 322 316 316 322 325 324 317 313 303 299 289 285 282 277 271 270
75 69 62 58 56 54 57 65 64 53 41 30 40 36 34 32 20 13 346 358 339 343 330 334 338 338 328 325 327 332 331 322 319 311 308 302 297 292 287 282 278 275
75 68 62 63 61 59 55 58 56 50 42 43 44 36 23 24 18 15 10 4 359 359 350 347 351 340 333 334 336 327 325 318 311 305 300 299 296 292 286 284 283 278
81 82 80 77 68 61 53 47 50 42 49 44 32 30 23 15 17 12 19 9 357 349 351 349 341 334 326 324 320 311 308 300 297 292 290 290 292 292 289 280 275 279
82 88 92 78 66 56 39 36 33 41 50 39 27 24 19 7 12 12 7 1 352 344 339 334 325 319 311 310 310 309 306 298 290 289 283 281 283 288 292 297 292 283
69 72 71 66 62 46 33 21 31 38 40 28 21 18 6 8 12 357 347 343 341 343 332 311 307 299 302 305 307 307 306 302 296 294 294 290 287 288 290 293 295 295
58 56 56 53 49 46 32 31 37 37 28 18 12 360 6 10 350 350 334 327 330 324 306 295 289 292 297 302 304 304 306 307 299 295 295 295 294 290 290 292 295 297
60 53 46 35 34 34 34 35 39 31 15 357 0 5 8 351 336 328 310 307 298 286 279 280 286 289 296 301 305 306 308 311 301 301 295 291 292 291 291 294 294 296
58 49 36 13 16 25 33 35 33 19 7 353 5 351 333 314 299 297 290 283 285 279 278 286 287 296 303 306 308 308 309 312 304 300 297 293 290 288 288 289 292 291
57 45 25 7 11 19 42 34 25 0 344 330 350 319 300 291 288 278 282 294 297 308 311 304 301 303 307 308 309 308 312 313 308 301 301 298 293 292 289 290 289 289
63 43 15 360 7 31 40 29 12 341 330 341 342 301 298 294 285 290 301 313 318 319 314 304 304 302 303 308 311 318 321 317 317 312 305 304 302 302 302 299 296 294
83 62 32 332 8 29 25 354 328 316 315 340 323 308 311 302 304 322 319 313 308 304 294 299 301 301 303 311 318 324 331 324 320 321 315 312 308 306 307 305 301 303
110 79 18 337 350 350 350 332 312 302 310 325 307 298 291 302 320 320 312 300 283 291 295 298 301 308 315 316 324 330 336 331 329 324 319 316 316 313 312 310 309 308
99 87 323 13 299 323 318 303 291 332 319 318 308 293 295 310 307 305 309 314 317 316 319 315 312 313 321 329 335 335 338 338 331 328 322 318 316 314 315 314 314 313